Time,TemperatureF,DewpointF,PressureIn,WindDirection,WindDirectionDegrees,WindSpeedMPH,WindSpeedGustMPH,Humidity,HourlyPrecipIn,Conditions,Clouds,dailyrainin,SoftwareType,DateUTC
2013-06-16 00:00:00,31.8,15.7,-100.00,WSW,247,0.0,0.0,51,0.00,n/a,n/a,-99.99,Henriksen +1-Wire,2013-06-16 04:00:00,
2013-06-16 00:10:00,31.8,15.7,-100.00,WSW,246,0.0,0.0,51,0.00,n/a,n/a,-99.99,Henriksen +1-Wire,2013-06-16 04:10:00,
2013-06-16 00:20:00,31.8,15.7,-100.00,WSW,247,0.0,0.0,51,0.00,n/a,n/a,-99.99,Henriksen +1-Wire,2013-06-16 04:20:00,
2013-06-16 00:30:00,31.8,15.7,-100.00,WSW,247,0.0,0.0,51,0.00,n/a,n/a,-99.99,Henriksen +1-Wire,2013-06-16 04:30:00,
2013-06-16 00:40:00,31.8,15.7,-100.00,SW,226,0.0,0.0,51,0.00,n/a,n/a,-99.99,Henriksen +1-Wire,2013-06-16 04:40:00,
2013-06-16 00:50:00,31.8,15.7,-100.00,SSE,157,0.0,0.0,51,0.00,n/a,n/a,-99.99,Henriksen +1-Wire,2013-06-16 04:50:00,
2013-06-16 01:00:00,31.8,15.7,-100.00,SSE,157,0.0,0.0,51,0.00,n/a,n/a,-99.99,Henriksen +1-Wire,2013-06-16 05:00:00,
2013-06-16 01:10:00,31.8,15.7,-100.00,South,171,0.0,0.0,51,0.00,n/a,n/a,-99.99,Henriksen +1-Wire,2013-06-16 05:10:00,
2013-06-16 01:20:00,31.8,15.7,-100.00,South,187,0.0,0.0,51,0.00,n/a,n/a,-99.99,Henriksen +1-Wire,2013-06-16 05:20:00,
2013-06-16 01:30:00,31.8,15.7,-100.00,SSW,202,0.0,0.0,51,0.00,n/a,n/a,-99.99,Henriksen +1-Wire,2013-06-16 05:30:00,
2013-06-16 01:40:00,31.8,15.7,-100.00,SSW,202,0.0,0.0,51,0.00,n/a,n/a,-99.99,Henriksen +1-Wire,2013-06-16 05:40:00,
2013-06-16 01:50:00,31.8,15.7,-100.00,SW,224,0.0,0.0,51,0.00,n/a,n/a,-99.99,Henriksen +1-Wire,2013-06-16 05:50:00,
2013-06-16 02:00:00,31.8,15.7,-100.00,SW,228,0.0,0.0,51,0.00,n/a,n/a,-99.99,Henriksen +1-Wire,2013-06-16 06:00:00,
2013-06-16 02:10:00,31.8,15.7,-100.00,WSW,247,0.0,0.0,51,0.00,n/a,n/a,-99.99,Henriksen +1-Wire,2013-06-16 06:10:00,
2013-06-16 02:20:00,31.8,15.7,-100.00,ENE,58,0.0,0.0,51,0.00,n/a,n/a,-99.99,Henriksen +1-Wire,2013-06-16 06:20:00,
2013-06-16 02:30:00,31.8,15.7,-100.00,ESE,117,0.0,0.0,51,0.00,n/a,n/a,-99.99,Henriksen +1-Wire,2013-06-16 06:30:00,
2013-06-16 02:40:00,31.8,15.7,-100.00,East,93,0.0,0.0,51,0.00,n/a,n/a,-99.99,Henriksen +1-Wire,2013-06-16 06:40:00,
2013-06-16 02:50:00,31.8,15.7,-100.00,East,87,0.0,0.0,51,0.00,n/a,n/a,-99.99,Henriksen +1-Wire,2013-06-16 06:50:00,
2013-06-16 03:00:00,31.8,15.7,-100.00,SSE,160,0.0,1.0,51,0.00,n/a,n/a,-99.99,Henriksen +1-Wire,2013-06-16 07:00:00,
2013-06-16 03:10:00,31.8,15.7,-100.00,SSE,157,0.0,0.0,51,0.00,n/a,n/a,-99.99,Henriksen +1-Wire,2013-06-16 07:10:00,
2013-06-16 03:20:00,31.8,15.7,-100.00,SSE,157,0.0,0.0,51,0.00,n/a,n/a,-99.99,Henriksen +1-Wire,2013-06-16 07:20:00,
2013-06-16 03:30:00,31.8,15.7,-100.00,ESE,116,0.0,0.0,51,0.00,n/a,n/a,-99.99,Henriksen +1-Wire,2013-06-16 07:30:00,
2013-06-16 03:40:00,31.8,15.7,-100.00,West,259,0.0,0.0,51,0.00,n/a,n/a,-99.99,Henriksen +1-Wire,2013-06-16 07:40:00,
2013-06-16 03:50:00,31.8,15.7,-100.00,WSW,253,0.0,0.0,51,0.00,n/a,n/a,-99.99,Henriksen +1-Wire,2013-06-16 07:50:00,
2013-06-16 04:00:00,31.8,15.7,-100.00,WSW,241,0.0,0.0,51,0.00,n/a,n/a,-99.99,Henriksen +1-Wire,2013-06-16 08:00:00,
2013-06-16 04:10:00,31.8,15.7,-100.00,WSW,252,0.0,0.0,51,0.00,n/a,n/a,-99.99,Henriksen +1-Wire,2013-06-16 08:10:00,
2013-06-16 04:20:00,31.8,15.7,-100.00,NE,45,0.0,0.0,51,0.00,n/a,n/a,-99.99,Henriksen +1-Wire,2013-06-16 08:20:00,
2013-06-16 04:30:00,31.8,15.7,-100.00,SW,232,0.0,0.0,51,0.00,n/a,n/a,-99.99,Henriksen +1-Wire,2013-06-16 08:30:00,
2013-06-16 04:40:00,31.8,15.7,-100.00,NE,45,0.0,0.0,51,0.00,n/a,n/a,-99.99,Henriksen +1-Wire,2013-06-16 08:40:00,
2013-06-16 04:50:00,31.8,15.7,-100.00,NE,45,0.0,0.0,51,0.00,n/a,n/a,-99.99,Henriksen +1-Wire,2013-06-16 08:50:00,
2013-06-16 05:00:00,31.8,15.7,-100.00,NE,45,0.0,0.0,51,0.00,n/a,n/a,-99.99,Henriksen +1-Wire,2013-06-16 09:00:00,
2013-06-16 05:10:00,31.8,15.7,-100.00,NE,45,0.0,0.0,51,0.00,n/a,n/a,-99.99,Henriksen +1-Wire,2013-06-16 09:10:00,
2013-06-16 05:20:00,31.8,15.7,-100.00,NE,45,0.0,0.0,51,0.00,n/a,n/a,-99.99,Henriksen +1-Wire,2013-06-16 09:20:00,
2013-06-16 05:30:00,31.8,15.7,-100.00,NE,45,0.0,0.0,51,0.00,n/a,n/a,-99.99,Henriksen +1-Wire,2013-06-16 09:30:00,
2013-06-16 05:40:00,31.8,15.7,-100.00,NE,45,0.0,0.0,51,0.00,n/a,n/a,-99.99,Henriksen +1-Wire,2013-06-16 09:40:00,
2013-06-16 05:50:00,31.8,15.7,-100.00,WNW,291,0.0,0.0,51,0.00,n/a,n/a,-99.99,Henriksen +1-Wire,2013-06-16 09:50:00,
2013-06-16 06:00:00,31.8,15.7,-100.00,South,190,0.0,0.0,51,0.00,n/a,n/a,-99.99,Henriksen +1-Wire,2013-06-16 10:00:00,
2013-06-16 06:10:00,31.8,15.7,-100.00,SSE,156,0.0,0.0,51,0.00,n/a,n/a,-99.99,Henriksen +1-Wire,2013-06-16 10:10:00,
2013-06-16 06:20:00,31.8,15.7,-100.00,SSE,157,0.0,0.0,51,0.00,n/a,n/a,-99.99,Henriksen +1-Wire,2013-06-16 10:20:00,
2013-06-16 06:30:00,31.8,15.7,-100.00,SSE,157,0.0,0.0,51,0.00,n/a,n/a,-99.99,Henriksen +1-Wire,2013-06-16 10:30:00,
2013-06-16 06:40:00,31.8,15.7,-100.00,SSE,157,0.0,0.0,51,0.00,n/a,n/a,-99.99,Henriksen +1-Wire,2013-06-16 10:40:00,
2013-06-16 06:50:00,31.8,15.7,-100.00,SSE,157,0.0,0.0,51,0.00,n/a,n/a,-99.99,Henriksen +1-Wire,2013-06-16 10:50:00,
2013-06-16 07:00:00,31.8,15.7,-100.00,SSE,157,0.0,0.0,51,0.00,n/a,n/a,-99.99,Henriksen +1-Wire,2013-06-16 11:00:00,
2013-06-16 07:10:00,31.8,15.7,-100.00,SSE,157,0.0,0.0,51,0.00,n/a,n/a,-99.99,Henriksen +1-Wire,2013-06-16 11:10:00,
2013-06-16 07:20:00,31.8,15.7,-100.00,SSE,157,0.0,1.0,51,0.00,n/a,n/a,-99.99,Henriksen +1-Wire,2013-06-16 11:20:00,
2013-06-16 07:30:00,31.8,15.7,-100.00,SSW,201,0.0,1.1,51,0.00,n/a,n/a,-99.99,Henriksen +1-Wire,2013-06-16 11:30:00,
2013-06-16 07:40:00,31.8,15.7,-100.00,WSW,247,0.0,1.0,51,0.00,n/a,n/a,-99.99,Henriksen +1-Wire,2013-06-16 11:40:00,
2013-06-16 07:50:00,31.8,15.7,-100.00,WSW,258,0.0,2.1,51,0.00,n/a,n/a,-99.99,Henriksen +1-Wire,2013-06-16 11:50:00,
2013-06-16 08:00:00,31.8,15.7,-100.00,West,261,0.0,1.1,51,0.00,n/a,n/a,-99.99,Henriksen +1-Wire,2013-06-16 12:00:00,
2013-06-16 08:10:00,31.8,15.7,-100.00,NE,45,0.0,1.1,51,0.00,n/a,n/a,-99.99,Henriksen +1-Wire,2013-06-16 12:10:00,
2013-06-16 08:20:00,31.8,15.7,-100.00,NE,45,0.0,1.1,51,0.00,n/a,n/a,-99.99,Henriksen +1-Wire,2013-06-16 12:20:00,
2013-06-16 08:30:00,31.8,15.7,-100.00,NE,45,0.2,2.1,51,0.00,n/a,n/a,-99.99,Henriksen +1-Wire,2013-06-16 12:30:00,
2013-06-16 08:40:00,31.8,15.7,-100.00,West,260,0.3,2.1,51,0.00,n/a,n/a,-99.99,Henriksen +1-Wire,2013-06-16 12:40:00,
2013-06-16 08:50:00,31.8,15.7,-100.00,West,267,0.0,4.3,51,0.00,n/a,n/a,-99.99,Henriksen +1-Wire,2013-06-16 12:50:00,
2013-06-16 09:00:00,31.8,15.7,-100.00,WNW,289,0.0,0.0,51,0.00,n/a,n/a,-99.99,Henriksen +1-Wire,2013-06-16 13:00:00,
2013-06-16 09:10:00,31.8,15.7,-100.00,WNW,291,0.0,1.0,51,0.00,n/a,n/a,-99.99,Henriksen +1-Wire,2013-06-16 13:10:00,
2013-06-16 09:20:00,31.8,15.7,-100.00,WNW,298,0.1,2.1,51,0.00,n/a,n/a,-99.99,Henriksen +1-Wire,2013-06-16 13:20:00,
2013-06-16 09:30:00,31.8,15.7,-100.00,West,260,0.0,0.0,51,0.00,n/a,n/a,-99.99,Henriksen +1-Wire,2013-06-16 13:30:00,
2013-06-16 09:40:00,31.8,15.7,-100.00,NE,45,0.0,1.1,51,0.00,n/a,n/a,-99.99,Henriksen +1-Wire,2013-06-16 13:40:00,
2013-06-16 09:50:00,31.8,15.7,-100.00,WNW,287,0.1,3.8,51,0.00,n/a,n/a,-99.99,Henriksen +1-Wire,2013-06-16 13:50:00,
2013-06-16 10:00:00,31.8,15.7,-100.00,WNW,292,0.0,1.9,51,0.00,n/a,n/a,-99.99,Henriksen +1-Wire,2013-06-16 14:00:00,
2013-06-16 10:10:00,31.8,15.7,-100.00,WNW,292,0.0,0.0,51,0.00,n/a,n/a,-99.99,Henriksen +1-Wire,2013-06-16 14:10:00,
2013-06-16 10:20:00,31.8,15.7,-100.00,WNW,291,0.0,1.1,51,0.00,n/a,n/a,-99.99,Henriksen +1-Wire,2013-06-16 14:20:00,
2013-06-16 10:30:00,31.8,15.7,-100.00,WNW,290,0.0,1.1,51,0.00,n/a,n/a,-99.99,Henriksen +1-Wire,2013-06-16 14:30:00,
2013-06-16 10:40:00,31.8,15.7,-100.00,WNW,291,0.0,1.0,51,0.00,n/a,n/a,-99.99,Henriksen +1-Wire,2013-06-16 14:40:00,
2013-06-16 10:50:00,31.8,15.7,-100.00,WNW,291,0.0,0.0,51,0.00,n/a,n/a,-99.99,Henriksen +1-Wire,2013-06-16 14:50:00,
2013-06-16 11:00:00,31.8,15.7,-100.00,WNW,291,0.0,1.0,51,0.00,n/a,n/a,-99.99,Henriksen +1-Wire,2013-06-16 15:00:00,
2013-06-16 11:10:00,31.8,15.7,-100.00,NNW,336,0.0,2.1,51,0.00,n/a,n/a,-99.99,Henriksen +1-Wire,2013-06-16 15:10:00,
2013-06-16 11:20:00,31.8,15.7,-100.00,NNW,335,0.4,3.9,51,0.00,n/a,n/a,-99.99,Henriksen +1-Wire,2013-06-16 15:20:00,
2013-06-16 11:30:00,31.8,15.7,-100.00,NNW,336,0.1,3.1,51,0.00,n/a,n/a,-99.99,Henriksen +1-Wire,2013-06-16 15:30:00,
2013-06-16 11:40:00,31.8,15.7,-100.00,NW,304,0.3,3.1,51,0.00,n/a,n/a,-99.99,Henriksen +1-Wire,2013-06-16 15:40:00,
2013-06-16 11:50:00,31.8,15.7,-100.00,NNW,334,0.1,3.9,51,0.00,n/a,n/a,-99.99,Henriksen +1-Wire,2013-06-16 15:50:00,
2013-06-16 12:00:00,31.8,15.7,-100.00,NW,323,0.1,2.9,51,0.00,n/a,n/a,-99.99,Henriksen +1-Wire,2013-06-16 16:00:00,
2013-06-16 12:10:00,31.8,15.7,-100.00,WNW,292,0.0,5.4,51,0.00,n/a,n/a,-99.99,Henriksen +1-Wire,2013-06-16 16:10:00,
2013-06-16 12:20:00,31.8,15.7,-100.00,North,0,0.0,1.0,51,0.00,n/a,n/a,-99.99,Henriksen +1-Wire,2013-06-16 16:20:00,
2013-06-16 12:30:00,31.8,15.7,-100.00,WNW,284,0.0,3.9,51,0.00,n/a,n/a,-99.99,Henriksen +1-Wire,2013-06-16 16:30:00,
2013-06-16 12:40:00,31.8,15.7,-100.00,NNW,328,0.5,8.6,51,0.00,n/a,n/a,-99.99,Henriksen +1-Wire,2013-06-16 16:40:00,
2013-06-16 12:50:00,31.8,15.7,-100.00,NNW,333,0.1,5.2,51,0.00,n/a,n/a,-99.99,Henriksen +1-Wire,2013-06-16 16:50:00,
2013-06-16 13:00:00,31.8,15.7,-100.00,SE,133,0.9,3.9,51,0.00,n/a,n/a,-99.99,Henriksen +1-Wire,2013-06-16 17:00:00,
2013-06-16 13:10:00,31.8,15.7,-100.00,WNW,299,0.5,3.9,51,0.00,n/a,n/a,-99.99,Henriksen +1-Wire,2013-06-16 17:10:00,
2013-06-16 13:20:00,31.8,15.7,-100.00,WNW,290,1.2,6.8,51,0.00,n/a,n/a,-99.99,Henriksen +1-Wire,2013-06-16 17:20:00,
2013-06-16 13:30:00,31.8,15.7,-100.00,NE,45,0.1,5.8,51,0.00,n/a,n/a,-99.99,Henriksen +1-Wire,2013-06-16 17:30:00,
2013-06-16 13:40:00,31.8,15.7,-100.00,WNW,301,0.0,4.2,51,0.00,n/a,n/a,-99.99,Henriksen +1-Wire,2013-06-16 17:40:00,
2013-06-16 13:50:00,31.8,15.7,-100.00,NNW,331,1.1,4.9,51,0.00,n/a,n/a,-99.99,Henriksen +1-Wire,2013-06-16 17:50:00,
2013-06-16 14:00:00,31.8,15.7,-100.00,SW,236,0.0,1.0,51,0.00,n/a,n/a,-99.99,Henriksen +1-Wire,2013-06-16 18:00:00,
2013-06-16 14:10:00,31.8,15.7,-100.00,WNW,300,0.1,4.9,51,0.00,n/a,n/a,-99.99,Henriksen +1-Wire,2013-06-16 18:10:00,
2013-06-16 14:20:00,31.8,15.7,-100.00,NNW,329,0.0,1.0,51,0.00,n/a,n/a,-99.99,Henriksen +1-Wire,2013-06-16 18:20:00,
2013-06-16 14:30:00,31.8,15.7,-100.00,WNW,298,0.1,3.9,51,0.00,n/a,n/a,-99.99,Henriksen +1-Wire,2013-06-16 18:30:00,
2013-06-16 14:40:00,31.8,15.7,-100.00,WSW,240,0.3,4.9,51,0.00,n/a,n/a,-99.99,Henriksen +1-Wire,2013-06-16 18:40:00,
2013-06-16 14:50:00,31.8,15.7,-100.00,ENE,74,0.0,3.0,51,0.00,n/a,n/a,-99.99,Henriksen +1-Wire,2013-06-16 18:50:00,
2013-06-16 15:00:00,31.8,15.7,-100.00,NE,45,0.3,2.2,51,0.00,n/a,n/a,-99.99,Henriksen +1-Wire,2013-06-16 19:00:00,
2013-06-16 15:10:00,31.8,15.7,-100.00,NE,45,0.0,1.9,51,0.00,n/a,n/a,-99.99,Henriksen +1-Wire,2013-06-16 19:10:00,
2013-06-16 15:20:00,31.8,15.7,-100.00,ESE,112,0.5,2.9,51,0.00,n/a,n/a,-99.99,Henriksen +1-Wire,2013-06-16 19:20:00,
2013-06-16 15:30:00,31.8,15.7,-100.00,SE,126,0.0,4.9,51,0.00,n/a,n/a,-99.99,Henriksen +1-Wire,2013-06-16 19:30:00,
2013-06-16 15:40:00,31.8,15.7,-100.00,SW,228,0.4,2.0,51,0.00,n/a,n/a,-99.99,Henriksen +1-Wire,2013-06-16 19:40:00,
2013-06-16 15:50:00,31.8,15.7,-100.00,NE,45,0.1,4.9,51,0.00,n/a,n/a,-99.99,Henriksen +1-Wire,2013-06-16 19:50:00,
2013-06-16 16:00:00,31.8,15.7,-100.00,NE,45,0.0,1.0,51,0.00,n/a,n/a,-99.99,Henriksen +1-Wire,2013-06-16 20:00:00,
2013-06-16 16:10:00,31.8,15.7,-100.00,NE,45,0.0,1.0,51,0.00,n/a,n/a,-99.99,Henriksen +1-Wire,2013-06-16 20:10:00,
2013-06-16 16:20:00,31.8,15.7,-100.00,NE,45,0.0,1.0,51,0.00,n/a,n/a,-99.99,Henriksen +1-Wire,2013-06-16 20:20:00,
2013-06-16 16:30:00,31.8,15.7,-100.00,NE,45,0.0,0.0,51,0.00,n/a,n/a,-99.99,Henriksen +1-Wire,2013-06-16 20:30:00,
2013-06-16 16:40:00,31.8,15.7,-100.00,NE,45,0.0,0.0,51,0.00,n/a,n/a,-99.99,Henriksen +1-Wire,2013-06-16 20:40:00,
2013-06-16 16:50:00,31.8,15.7,-100.00,NE,45,0.0,0.0,51,0.00,n/a,n/a,-99.99,Henriksen +1-Wire,2013-06-16 20:50:00,
2013-06-16 17:00:00,31.8,15.7,-100.00,NE,41,0.0,0.0,51,0.00,n/a,n/a,-99.99,Henriksen +1-Wire,2013-06-16 21:00:00,
2013-06-16 17:10:00,31.8,15.7,-100.00,NE,45,0.0,0.0,51,0.00,n/a,n/a,-99.99,Henriksen +1-Wire,2013-06-16 21:10:00,
2013-06-16 17:20:00,31.8,15.7,-100.00,NE,45,0.0,0.0,51,0.00,n/a,n/a,-99.99,Henriksen +1-Wire,2013-06-16 21:20:00,
2013-06-16 17:30:00,31.8,15.7,-100.00,NE,45,0.0,0.0,51,0.00,n/a,n/a,-99.99,Henriksen +1-Wire,2013-06-16 21:30:00,
2013-06-16 17:40:00,31.8,15.7,-100.00,NE,45,0.0,0.0,51,0.00,n/a,n/a,-99.99,Henriksen +1-Wire,2013-06-16 21:40:00,
2013-06-16 17:50:00,31.8,15.7,-100.00,NE,45,0.0,1.0,51,0.00,n/a,n/a,-99.99,Henriksen +1-Wire,2013-06-16 21:50:00,
2013-06-16 18:00:00,31.8,15.7,-100.00,NE,41,0.0,0.0,51,0.00,n/a,n/a,-99.99,Henriksen +1-Wire,2013-06-16 22:00:00,
2013-06-16 18:10:00,31.8,15.7,-100.00,NNE,24,0.0,0.0,51,0.00,n/a,n/a,-99.99,Henriksen +1-Wire,2013-06-16 22:10:00,
2013-06-16 18:20:00,31.8,15.7,-100.00,NE,41,0.0,0.0,51,0.00,n/a,n/a,-99.99,Henriksen +1-Wire,2013-06-16 22:20:00,
2013-06-16 18:30:00,31.8,15.7,-100.00,NE,45,0.0,0.0,51,0.00,n/a,n/a,-99.99,Henriksen +1-Wire,2013-06-16 22:30:00,
2013-06-16 18:40:00,31.8,15.7,-100.00,NE,45,0.0,0.0,51,0.00,n/a,n/a,-99.99,Henriksen +1-Wire,2013-06-16 22:40:00,
2013-06-16 18:50:00,31.8,15.7,-100.00,NE,45,0.0,0.0,51,0.00,n/a,n/a,-99.99,Henriksen +1-Wire,2013-06-16 22:50:00,
2013-06-16 19:00:00,31.8,15.7,-100.00,NE,45,0.0,0.0,51,0.00,n/a,n/a,-99.99,Henriksen +1-Wire,2013-06-16 23:00:00,
2013-06-16 19:10:00,31.8,15.7,-100.00,NE,45,0.0,0.0,51,0.00,n/a,n/a,-99.99,Henriksen +1-Wire,2013-06-16 23:10:00,
2013-06-16 19:20:00,31.8,15.7,-100.00,NE,38,0.0,1.0,51,0.00,n/a,n/a,-99.99,Henriksen +1-Wire,2013-06-16 23:20:00,
2013-06-16 19:30:00,31.8,15.7,-100.00,NE,38,0.0,0.0,51,0.00,n/a,n/a,-99.99,Henriksen +1-Wire,2013-06-16 23:30:00,
2013-06-16 19:40:00,31.8,15.7,-100.00,NE,41,0.0,0.0,51,0.00,n/a,n/a,-99.99,Henriksen +1-Wire,2013-06-16 23:40:00,
2013-06-16 19:50:00,31.8,15.7,-100.00,NE,41,0.0,0.0,51,0.00,n/a,n/a,-99.99,Henriksen +1-Wire,2013-06-16 23:50:00,
2013-06-16 20:00:00,31.8,15.7,-100.00,NE,45,0.0,0.0,51,0.00,n/a,n/a,-99.99,Henriksen +1-Wire,2013-06-17 00:00:00,
2013-06-16 20:10:00,31.8,15.7,-100.00,NE,45,0.0,0.0,51,0.00,n/a,n/a,-99.99,Henriksen +1-Wire,2013-06-17 00:10:00,
2013-06-16 20:20:00,31.8,15.7,-100.00,NE,45,0.0,0.0,51,0.00,n/a,n/a,-99.99,Henriksen +1-Wire,2013-06-17 00:20:00,
2013-06-16 20:30:00,31.8,15.7,-100.00,NE,45,0.0,0.0,51,0.00,n/a,n/a,-99.99,Henriksen +1-Wire,2013-06-17 00:30:00,
2013-06-16 20:40:00,31.8,15.7,-100.00,NE,45,0.0,0.0,51,0.00,n/a,n/a,-99.99,Henriksen +1-Wire,2013-06-17 00:40:00,
2013-06-16 20:50:00,31.8,15.7,-100.00,NE,36,0.0,0.0,51,0.00,n/a,n/a,-99.99,Henriksen +1-Wire,2013-06-17 00:50:00,
2013-06-16 21:00:00,31.8,15.7,-100.00,NNE,27,0.0,0.0,51,0.00,n/a,n/a,-99.99,Henriksen +1-Wire,2013-06-17 01:00:00,
2013-06-16 21:10:00,31.8,15.7,-100.00,NNE,23,0.0,0.0,51,0.00,n/a,n/a,-99.99,Henriksen +1-Wire,2013-06-17 01:10:00,
2013-06-16 21:20:00,31.8,15.7,-100.00,NNE,23,0.0,0.0,51,0.00,n/a,n/a,-99.99,Henriksen +1-Wire,2013-06-17 01:20:00,
2013-06-16 21:30:00,31.8,15.7,-100.00,NNE,23,0.0,0.0,51,0.00,n/a,n/a,-99.99,Henriksen +1-Wire,2013-06-17 01:30:00,
2013-06-16 21:40:00,31.8,15.7,-100.00,NNE,22,0.0,0.0,51,0.00,n/a,n/a,-99.99,Henriksen +1-Wire,2013-06-17 01:40:00,
2013-06-16 21:50:00,31.8,15.7,-100.00,NNE,22,0.0,0.0,51,0.00,n/a,n/a,-99.99,Henriksen +1-Wire,2013-06-17 01:50:00,
2013-06-16 22:00:00,31.8,15.7,-100.00,NNE,22,0.0,0.0,51,0.00,n/a,n/a,-99.99,Henriksen +1-Wire,2013-06-17 02:00:00,
2013-06-16 22:10:00,31.8,15.7,-100.00,NNE,22,0.0,0.0,51,0.00,n/a,n/a,-99.99,Henriksen +1-Wire,2013-06-17 02:10:00,
2013-06-16 22:20:00,31.8,15.7,-100.00,NNE,22,0.0,0.0,51,0.00,n/a,n/a,-99.99,Henriksen +1-Wire,2013-06-17 02:20:00,
2013-06-16 22:30:00,31.8,15.7,-100.00,NNE,22,0.0,0.0,51,0.00,n/a,n/a,-99.99,Henriksen +1-Wire,2013-06-17 02:30:00,
2013-06-16 22:40:00,31.8,15.7,-100.00,NNE,22,0.0,0.0,51,0.00,n/a,n/a,-99.99,Henriksen +1-Wire,2013-06-17 02:40:00,
2013-06-16 22:50:00,31.8,15.7,-100.00,NNE,21,0.0,1.0,51,0.00,n/a,n/a,-99.99,Henriksen +1-Wire,2013-06-17 02:50:00,
2013-06-16 23:00:00,31.8,15.7,-100.00,NE,45,0.0,0.7,51,0.00,n/a,n/a,-99.99,Henriksen +1-Wire,2013-06-17 03:00:00,
2013-06-16 23:10:00,31.8,15.7,-100.00,NE,45,0.0,1.0,51,0.00,n/a,n/a,-99.99,Henriksen +1-Wire,2013-06-17 03:10:00,
2013-06-16 23:20:00,31.8,15.7,-100.00,NNE,21,0.0,1.0,51,0.00,n/a,n/a,-99.99,Henriksen +1-Wire,2013-06-17 03:20:00,
2013-06-16 23:30:00,31.8,15.7,-100.00,ENE,75,0.0,0.0,51,0.00,n/a,n/a,-99.99,Henriksen +1-Wire,2013-06-17 03:30:00,
2013-06-16 23:40:00,31.8,15.7,-100.00,East,89,0.0,0.0,51,0.00,n/a,n/a,-99.99,Henriksen +1-Wire,2013-06-17 03:40:00,
2013-06-16 23:50:00,31.8,15.7,-100.00,East,89,0.0,0.0,51,0.00,n/a,n/a,-99.99,Henriksen +1-Wire,2013-06-17 03:50:00,